Time,TemperatureF,DewpointF,PressureIn,WindDirection,WindDirectionDegrees,WindSpeedMPH,WindSpeedGustMPH,Humidity,HourlyPrecipIn,Conditions,Clouds,dailyrainin,SoftwareType,DateUTC
2013-04-09 00:03:00,70.0,-99.9,29.99,ESE,118,18.0,26.0,-999,-99.99,,,-99.99,,2013-04-09 05:03:00,
2013-04-09 00:12:00,70.0,-99.9,29.99,ESE,121,16.0,22.0,-999,-99.99,,,-99.99,,2013-04-09 05:12:00,
2013-04-09 00:22:00,70.0,-99.9,29.99,North,-999,-999.0,-999.0,-999,-99.99,,,-99.99,,2013-04-09 05:22:00,
2013-04-09 00:32:00,71.0,-99.9,29.99,SE,124,17.0,27.0,-999,-99.99,,,-99.99,,2013-04-09 05:32:00,
2013-04-09 00:43:00,71.0,-99.9,29.98,ESE,121,17.0,22.0,-999,-99.99,,,-99.99,,2013-04-09 05:43:00,
2013-04-09 00:52:00,70.0,-99.9,29.98,ESE,120,15.0,21.0,-999,-99.99,,,-99.99,,2013-04-09 05:52:00,
2013-04-09 01:02:00,70.0,-99.9,29.98,ESE,123,15.0,20.0,-999,-99.99,,,-99.99,,2013-04-09 06:02:00,
2013-04-09 01:12:00,70.0,-99.9,29.97,SE,125,18.0,25.0,-999,-99.99,,,-99.99,,2013-04-09 06:12:00,
2013-04-09 01:22:00,70.0,-99.9,29.97,SE,128,18.0,23.0,-999,-99.99,,,-99.99,,2013-04-09 06:22:00,
2013-04-09 01:32:00,70.0,-99.9,29.97,SE,124,18.0,24.0,-999,-99.99,,,-99.99,,2013-04-09 06:32:00,
2013-04-09 01:42:00,70.0,-99.9,29.96,SE,126,17.0,23.0,-999,-99.99,,,-99.99,,2013-04-09 06:42:00,
2013-04-09 01:52:00,70.0,-99.9,29.97,North,-999,-999.0,-999.0,-999,-99.99,,,-99.99,,2013-04-09 06:52:00,
2013-04-09 02:02:00,70.0,-99.9,29.97,SE,124,14.0,18.0,-999,-99.99,,,-99.99,,2013-04-09 07:02:00,
2013-04-09 02:13:00,70.0,-99.9,29.97,SE,129,13.0,18.0,-999,-99.99,,,-99.99,,2013-04-09 07:13:00,
2013-04-09 02:22:00,70.0,-99.9,29.97,SE,130,13.0,16.0,-999,-99.99,,,-99.99,,2013-04-09 07:22:00,
2013-04-09 02:32:00,70.0,-99.9,29.97,SE,130,13.0,17.0,-999,-99.99,,,-99.99,,2013-04-09 07:32:00,
2013-04-09 02:42:00,70.0,-99.9,29.97,SE,133,14.0,17.0,-999,-99.99,,,-99.99,,2013-04-09 07:42:00,
2013-04-09 02:53:00,70.0,-99.9,29.96,SE,134,14.0,19.0,-999,-99.99,,,-99.99,,2013-04-09 07:53:00,
2013-04-09 03:03:00,70.0,-99.9,29.96,SE,133,13.0,15.0,-999,-99.99,,,-99.99,,2013-04-09 08:03:00,
2013-04-09 03:13:00,70.0,-99.9,29.96,SE,128,13.0,16.0,-999,-99.99,,,-99.99,,2013-04-09 08:13:00,
2013-04-09 03:22:00,70.0,-99.9,29.95,North,-999,-999.0,-999.0,-999,-99.99,,,-99.99,,2013-04-09 08:22:00,
2013-04-09 03:32:00,70.0,-99.9,29.95,SE,132,13.0,18.0,-999,-99.99,,,-99.99,,2013-04-09 08:32:00,
2013-04-09 03:42:00,70.0,-99.9,29.95,SE,129,13.0,17.0,-999,-99.99,,,-99.99,,2013-04-09 08:42:00,
2013-04-09 03:52:00,70.0,-99.9,29.95,SE,126,12.0,16.0,-999,-99.99,,,-99.99,,2013-04-09 08:52:00,
2013-04-09 04:03:00,70.0,-99.9,29.95,SE,126,11.0,14.0,-999,-99.99,,,-99.99,,2013-04-09 09:03:00,
2013-04-09 04:13:00,70.0,-99.9,29.95,SE,125,12.0,15.0,-999,-99.99,,,-99.99,,2013-04-09 09:13:00,
2013-04-09 04:23:00,70.0,-99.9,29.95,North,-999,-999.0,-999.0,-999,-99.99,,,-99.99,,2013-04-09 09:23:00,
2013-04-09 04:33:00,70.0,-99.9,29.95,SE,124,12.0,17.0,-999,-99.99,,,-99.99,,2013-04-09 09:33:00,
2013-04-09 04:44:00,70.0,-99.9,29.95,SE,128,13.0,18.0,-999,-99.99,,,-99.99,,2013-04-09 09:44:00,
2013-04-09 04:53:00,70.0,-99.9,29.95,SE,125,13.0,17.0,-999,-99.99,,,-99.99,,2013-04-09 09:53:00,
2013-04-09 05:04:00,70.0,-99.9,29.95,SE,125,12.0,17.0,-999,-99.99,,,-99.99,,2013-04-09 10:04:00,
2013-04-09 05:13:00,70.0,-99.9,29.96,SE,124,13.0,17.0,-999,-99.99,,,-99.99,,2013-04-09 10:13:00,
2013-04-09 05:24:00,70.0,-99.9,29.96,SE,124,13.0,18.0,-999,-99.99,,,-99.99,,2013-04-09 10:24:00,
2013-04-09 05:33:00,70.0,-99.9,29.96,ESE,123,12.0,16.0,-999,-99.99,,,-99.99,,2013-04-09 10:33:00,
2013-04-09 05:43:00,70.0,-99.9,29.96,ESE,118,13.0,16.0,-999,-99.99,,,-99.99,,2013-04-09 10:43:00,
2013-04-09 05:54:00,70.0,-99.9,29.96,North,-999,-999.0,-999.0,-999,-99.99,,,-99.99,,2013-04-09 10:54:00,
2013-04-09 06:02:00,70.0,-99.9,29.97,ESE,119,13.0,15.0,-999,-99.99,,,-99.99,,2013-04-09 11:02:00,
2013-04-09 06:12:00,70.0,-99.9,29.97,ESE,117,12.0,16.0,-999,-99.99,,,-99.99,,2013-04-09 11:12:00,
2013-04-09 06:22:00,70.0,-99.9,29.97,ESE,119,13.0,16.0,-999,-99.99,,,-99.99,,2013-04-09 11:22:00,
2013-04-09 06:32:00,70.0,-99.9,29.97,ESE,121,11.0,14.0,-999,-99.99,,,-99.99,,2013-04-09 11:32:00,
2013-04-09 06:43:00,70.0,-99.9,29.98,ESE,121,12.0,16.0,-999,-99.99,,,-99.99,,2013-04-09 11:43:00,
2013-04-09 06:52:00,70.0,-99.9,29.98,North,-999,-999.0,-999.0,-999,-99.99,,,-99.99,,2013-04-09 11:52:00,
2013-04-09 07:02:00,70.0,-99.9,29.98,SE,125,11.0,15.0,-999,-99.99,,,-99.99,,2013-04-09 12:02:00,
2013-04-09 07:12:00,70.0,-99.9,29.99,ESE,121,12.0,16.0,-999,-99.99,,,-99.99,,2013-04-09 12:12:00,
2013-04-09 07:22:00,70.0,-99.9,29.99,ESE,123,11.0,14.0,-999,-99.99,,,-99.99,,2013-04-09 12:22:00,
2013-04-09 07:33:00,70.0,-99.9,29.99,SE,124,11.0,14.0,-999,-99.99,,,-99.99,,2013-04-09 12:33:00,
2013-04-09 07:43:00,71.0,-99.9,29.99,SE,125,12.0,18.0,-999,-99.99,,,-99.99,,2013-04-09 12:43:00,
2013-04-09 07:53:00,71.0,-99.9,30.00,SE,126,13.0,16.0,-999,-99.99,,,-99.99,,2013-04-09 12:53:00,
2013-04-09 08:03:00,71.0,-99.9,30.00,SE,126,13.0,18.0,-999,-99.99,,,-99.99,,2013-04-09 13:03:00,
2013-04-09 08:13:00,71.0,-99.9,30.00,ESE,123,14.0,18.0,-999,-99.99,,,-99.99,,2013-04-09 13:13:00,
2013-04-09 08:23:00,71.0,-99.9,30.00,ESE,123,15.0,20.0,-999,-99.99,,,-99.99,,2013-04-09 13:23:00,
2013-04-09 08:33:00,72.0,-99.9,30.00,SE,126,14.0,20.0,-999,-99.99,,,-99.99,,2013-04-09 13:33:00,
2013-04-09 08:43:00,72.0,-99.9,30.00,North,-999,-999.0,-999.0,-999,-99.99,,,-99.99,,2013-04-09 13:43:00,
2013-04-09 08:54:00,72.0,-99.9,30.00,SE,126,15.0,18.0,-999,-99.99,,,-99.99,,2013-04-09 13:54:00,
2013-04-09 09:03:00,72.0,-99.9,30.01,SE,131,14.0,17.0,-999,-99.99,,,-99.99,,2013-04-09 14:03:00,
2013-04-09 09:12:00,72.0,-99.9,30.02,SE,130,13.0,16.0,-999,-99.99,,,-99.99,,2013-04-09 14:12:00,
2013-04-09 09:22:00,72.0,-99.9,30.02,North,-999,-999.0,-999.0,-999,-99.99,,,-99.99,,2013-04-09 14:22:00,
2013-04-09 09:33:00,72.0,-99.9,30.03,SE,127,13.0,17.0,-999,-99.99,,,-99.99,,2013-04-09 14:33:00,
2013-04-09 09:43:00,72.0,-99.9,30.03,SE,130,13.0,16.0,-999,-99.99,,,-99.99,,2013-04-09 14:43:00,
2013-04-09 09:53:00,73.0,-99.9,30.04,SE,130,13.0,17.0,-999,-99.99,,,-99.99,,2013-04-09 14:53:00,
2013-04-09 10:02:00,73.0,-99.9,30.04,SE,125,14.0,18.0,-999,-99.99,,,-99.99,,2013-04-09 15:02:00,
2013-04-09 10:13:00,73.0,-99.9,30.04,SE,128,15.0,20.0,-999,-99.99,,,-99.99,,2013-04-09 15:13:00,
2013-04-09 10:23:00,74.0,-99.9,30.05,SE,128,16.0,20.0,-999,-99.99,,,-99.99,,2013-04-09 15:23:00,
2013-04-09 10:35:00,74.0,-99.9,30.05,ESE,123,15.0,19.0,-999,-99.99,,,-99.99,,2013-04-09 15:35:00,
2013-04-09 10:44:00,74.0,-99.9,30.05,SE,130,17.0,21.0,-999,-99.99,,,-99.99,,2013-04-09 15:44:00,
2013-04-09 10:54:00,75.0,-99.9,30.05,ESE,122,14.0,19.0,-999,-99.99,,,-99.99,,2013-04-09 15:54:00,
2013-04-09 11:04:00,74.0,-99.9,30.06,ESE,115,16.0,23.0,-999,-99.99,,,-99.99,,2013-04-09 16:04:00,
2013-04-09 11:13:00,75.0,-99.9,30.06,ESE,116,16.0,20.0,-999,-99.99,,,-99.99,,2013-04-09 16:13:00,
2013-04-09 11:24:00,75.0,-99.9,30.07,North,-999,-999.0,-999.0,-999,-99.99,,,-99.99,,2013-04-09 16:24:00,
2013-04-09 11:34:00,75.0,-99.9,30.07,ESE,112,15.0,20.0,-999,-99.99,,,-99.99,,2013-04-09 16:34:00,
2013-04-09 11:43:00,75.0,-99.9,30.06,ESE,111,18.0,23.0,-999,-99.99,,,-99.99,,2013-04-09 16:43:00,
2013-04-09 11:54:00,75.0,-99.9,30.06,North,-999,-999.0,-999.0,-999,-99.99,,,-99.99,,2013-04-09 16:54:00,
2013-04-09 12:03:00,75.0,-99.9,30.06,ESE,105,17.0,24.0,-999,-99.99,,,-99.99,,2013-04-09 17:03:00,
2013-04-09 12:13:00,74.0,-99.9,30.06,ESE,117,17.0,26.0,-999,-99.99,,,-99.99,,2013-04-09 17:13:00,
2013-04-09 12:23:00,75.0,-99.9,30.06,ESE,112,18.0,24.0,-999,-99.99,,,-99.99,,2013-04-09 17:23:00,
2013-04-09 12:33:00,75.0,-99.9,30.06,ESE,112,19.0,27.0,-999,-99.99,,,-99.99,,2013-04-09 17:33:00,
2013-04-09 12:43:00,74.0,-99.9,30.06,ESE,116,17.0,23.0,-999,-99.99,,,-99.99,,2013-04-09 17:43:00,
2013-04-09 12:55:00,74.0,-99.9,30.07,ESE,116,19.0,26.0,-999,-99.99,,,-99.99,,2013-04-09 17:55:00,
2013-04-09 13:03:00,74.0,-99.9,30.07,ESE,115,19.0,23.0,-999,-99.99,,,-99.99,,2013-04-09 18:03:00,
2013-04-09 13:13:00,74.0,-99.9,30.06,ESE,114,20.0,25.0,-999,-99.99,,,-99.99,,2013-04-09 18:13:00,
2013-04-09 13:23:00,74.0,-99.9,30.06,North,-999,-999.0,-999.0,-999,-99.99,,,-99.99,,2013-04-09 18:23:00,
2013-04-09 13:30:00,75.0,-99.9,30.06,North,-999,-999.0,-999.0,-999,-99.99,,,-99.99,,2013-04-09 18:30:00,
2013-04-09 13:33:00,75.0,-99.9,30.06,ESE,121,19.0,26.0,-999,-99.99,,,-99.99,,2013-04-09 18:33:00,
2013-04-09 13:43:00,75.0,-99.9,30.06,ESE,117,17.0,23.0,-999,-99.99,,,-99.99,,2013-04-09 18:43:00,
2013-04-09 13:53:00,75.0,-99.9,30.06,ESE,117,17.0,23.0,-999,-99.99,,,-99.99,,2013-04-09 18:53:00,
2013-04-09 14:03:00,75.0,-99.9,30.06,North,-999,-999.0,-999.0,-999,-99.99,,,-99.99,,2013-04-09 19:03:00,
2013-04-09 14:12:00,75.0,-99.9,30.06,North,-999,-999.0,-999.0,-999,-99.99,,,-99.99,,2013-04-09 19:12:00,
2013-04-09 14:23:00,75.0,-99.9,30.06,North,-999,-999.0,-999.0,-999,-99.99,,,-99.99,,2013-04-09 19:23:00,
2013-04-09 14:53:00,74.0,-99.9,30.04,ESE,121,20.0,28.0,-999,-99.99,,,-99.99,,2013-04-09 19:53:00,
2013-04-09 15:03:00,75.0,-99.9,30.03,ESE,118,20.0,27.0,-999,-99.99,,,-99.99,,2013-04-09 20:03:00,
2013-04-09 15:12:00,74.0,-99.9,30.03,SE,125,17.0,25.0,-999,-99.99,,,-99.99,,2013-04-09 20:12:00,
2013-04-09 15:23:00,75.0,-99.9,30.03,North,-999,-999.0,-999.0,-999,-99.99,,,-99.99,,2013-04-09 20:23:00,
2013-04-09 15:35:00,74.0,-99.9,30.02,ESE,116,20.0,26.0,-999,-99.99,,,-99.99,,2013-04-09 20:35:00,
2013-04-09 15:44:00,75.0,-99.9,30.02,ESE,119,20.0,25.0,-999,-99.99,,,-99.99,,2013-04-09 20:44:00,
2013-04-09 15:53:00,75.0,-99.9,30.02,North,-999,-999.0,-999.0,-999,-99.99,,,-99.99,,2013-04-09 20:53:00,
2013-04-09 16:03:00,75.0,-99.9,30.01,ESE,115,18.0,25.0,-999,-99.99,,,-99.99,,2013-04-09 21:03:00,
2013-04-09 16:14:00,75.0,-99.9,30.01,ESE,115,18.0,25.0,-999,-99.99,,,-99.99,,2013-04-09 21:14:00,
2013-04-09 16:23:00,75.0,-99.9,30.01,ESE,115,18.0,25.0,-999,-99.99,,,-99.99,,2013-04-09 21:23:00,
2013-04-09 16:33:00,75.0,-99.9,30.01,ESE,118,20.0,27.0,-999,-99.99,,,-99.99,,2013-04-09 21:33:00,
2013-04-09 16:43:00,75.0,-99.9,30.01,ESE,118,20.0,27.0,-999,-99.99,,,-99.99,,2013-04-09 21:43:00,
2013-04-09 16:53:00,74.0,-99.9,30.02,SE,124,18.0,25.0,-999,-99.99,,,-99.99,,2013-04-09 21:53:00,
2013-04-09 17:04:00,74.0,-99.9,30.02,ESE,119,17.0,23.0,-999,-99.99,,,-99.99,,2013-04-09 22:04:00,
2013-04-09 17:13:00,74.0,-99.9,30.02,ESE,113,18.0,24.0,-999,-99.99,,,-99.99,,2013-04-09 22:13:00,
2013-04-09 17:23:00,74.0,-99.9,30.02,ESE,117,18.0,24.0,-999,-99.99,,,-99.99,,2013-04-09 22:23:00,
2013-04-09 17:34:00,74.0,-99.9,30.02,ESE,116,18.0,24.0,-999,-99.99,,,-99.99,,2013-04-09 22:34:00,
2013-04-09 17:43:00,74.0,-99.9,30.02,ESE,122,17.0,24.0,-999,-99.99,,,-99.99,,2013-04-09 22:43:00,
2013-04-09 17:54:00,74.0,-99.9,30.02,ESE,121,16.0,24.0,-999,-99.99,,,-99.99,,2013-04-09 22:54:00,
2013-04-09 18:03:00,74.0,-99.9,30.02,ESE,119,17.0,24.0,-999,-99.99,,,-99.99,,2013-04-09 23:03:00,
2013-04-09 18:13:00,74.0,-99.9,30.02,ESE,112,15.0,21.0,-999,-99.99,,,-99.99,,2013-04-09 23:13:00,
2013-04-09 18:23:00,74.0,-99.9,30.02,ESE,105,16.0,21.0,-999,-99.99,,,-99.99,,2013-04-09 23:23:00,
2013-04-09 18:33:00,73.0,-99.9,30.02,ESE,112,16.0,21.0,-999,-99.99,,,-99.99,,2013-04-09 23:33:00,
2013-04-09 18:43:00,73.0,-99.9,30.02,ESE,102,14.0,18.0,-999,-99.99,,,-99.99,,2013-04-09 23:43:00,
2013-04-09 18:53:00,73.0,-99.9,30.02,ESE,108,16.0,21.0,-999,-99.99,,,-99.99,,2013-04-09 23:53:00,
2013-04-09 19:03:00,73.0,-99.9,30.02,ESE,108,16.0,21.0,-999,-99.99,,,-99.99,,2013-04-10 00:03:00,
2013-04-09 19:13:00,73.0,-99.9,30.02,ESE,108,16.0,21.0,-999,-99.99,,,-99.99,,2013-04-10 00:13:00,
2013-04-09 19:23:00,73.0,-99.9,30.02,ESE,110,15.0,21.0,-999,-99.99,,,-99.99,,2013-04-10 00:23:00,
2013-04-09 19:33:00,72.0,-99.9,30.03,ESE,105,13.0,17.0,-999,-99.99,,,-99.99,,2013-04-10 00:33:00,
2013-04-09 19:43:00,72.0,-99.9,30.03,ESE,106,15.0,20.0,-999,-99.99,,,-99.99,,2013-04-10 00:43:00,
2013-04-09 19:53:00,72.0,-99.9,30.03,ESE,108,15.0,20.0,-999,-99.99,,,-99.99,,2013-04-10 00:53:00,
2013-04-09 20:02:00,72.0,-99.9,30.03,ESE,108,14.0,22.0,-999,-99.99,,,-99.99,,2013-04-10 01:02:00,
2013-04-09 20:12:00,72.0,-99.9,30.03,ESE,103,15.0,23.0,-999,-99.99,,,-99.99,,2013-04-10 01:12:00,
2013-04-09 20:23:00,72.0,-99.9,30.03,ESE,104,15.0,21.0,-999,-99.99,,,-99.99,,2013-04-10 01:23:00,
2013-04-09 20:33:00,72.0,-99.9,30.04,ESE,110,13.0,18.0,-999,-99.99,,,-99.99,,2013-04-10 01:33:00,
2013-04-09 20:43:00,72.0,-99.9,30.04,ESE,110,14.0,20.0,-999,-99.99,,,-99.99,,2013-04-10 01:43:00,
2013-04-09 20:53:00,72.0,-99.9,30.04,North,-999,-999.0,-999.0,-999,-99.99,,,-99.99,,2013-04-10 01:53:00,
2013-04-09 21:03:00,72.0,-99.9,30.04,ESE,103,15.0,20.0,-999,-99.99,,,-99.99,,2013-04-10 02:03:00,
2013-04-09 21:13:00,72.0,-99.9,30.04,ESE,111,14.0,18.0,-999,-99.99,,,-99.99,,2013-04-10 02:13:00,
2013-04-09 21:23:00,72.0,-99.9,30.05,ESE,109,14.0,18.0,-999,-99.99,,,-99.99,,2013-04-10 02:23:00,
2013-04-09 21:33:00,72.0,-99.9,30.05,ESE,107,14.0,23.0,-999,-99.99,,,-99.99,,2013-04-10 02:33:00,
2013-04-09 21:43:00,71.0,-99.9,30.05,East,99,14.0,17.0,-999,-99.99,,,-99.99,,2013-04-10 02:43:00,
2013-04-09 21:53:00,71.0,-99.9,30.05,ESE,105,14.0,18.0,-999,-99.99,,,-99.99,,2013-04-10 02:53:00,
2013-04-09 22:03:00,71.0,-99.9,30.05,ESE,104,13.0,18.0,-999,-99.99,,,-99.99,,2013-04-10 03:03:00,
2013-04-09 22:13:00,71.0,-99.9,30.06,ESE,109,13.0,19.0,-999,-99.99,,,-99.99,,2013-04-10 03:13:00,
2013-04-09 22:22:00,71.0,-99.9,30.06,ESE,108,12.0,16.0,-999,-99.99,,,-99.99,,2013-04-10 03:22:00,
2013-04-09 22:33:00,71.0,-99.9,30.06,ESE,111,14.0,19.0,-999,-99.99,,,-99.99,,2013-04-10 03:33:00,
2013-04-09 22:43:00,71.0,-99.9,30.05,ESE,107,13.0,17.0,-999,-99.99,,,-99.99,,2013-04-10 03:43:00,
2013-04-09 22:53:00,71.0,-99.9,30.05,North,-999,-999.0,-999.0,-999,-99.99,,,-99.99,,2013-04-10 03:53:00,
2013-04-09 23:03:00,71.0,-99.9,30.05,ESE,112,14.0,18.0,-999,-99.99,,,-99.99,,2013-04-10 04:03:00,
2013-04-09 23:13:00,71.0,-99.9,30.04,ESE,112,13.0,18.0,-999,-99.99,,,-99.99,,2013-04-10 04:13:00,
2013-04-09 23:23:00,71.0,-99.9,30.03,North,-999,-999.0,-999.0,-999,-99.99,,,-99.99,,2013-04-10 04:23:00,
2013-04-09 23:33:00,71.0,-99.9,30.03,ESE,109,14.0,21.0,-999,-99.99,,,-99.99,,2013-04-10 04:33:00,
2013-04-09 23:43:00,71.0,-99.9,30.02,ESE,107,16.0,23.0,-999,-99.99,,,-99.99,,2013-04-10 04:43:00,
2013-04-09 23:53:00,71.0,-99.9,30.02,North,-999,-999.0,-999.0,-999,-99.99,,,-99.99,,2013-04-10 04:53:00,